timestamp,surface_pressure_avg,surface_temp_avg,battery_voltage,lat,long
2018-10-02 00:00:00+00:00,224.4147,11.84,13.05,47.84626,-54.09684
2018-10-02 00:10:00+00:00,224.8981,11.86,12.97,47.84626,-54.09684
2018-10-02 00:20:00+00:00,225.3314,11.89,13.05,47.84626,-54.09684
2018-10-02 00:30:00+00:00,229.5765,11.9,13.05,47.84626,-54.09684
2018-10-02 00:40:00+00:00,235.5331,11.9,13.05,47.84626,-54.09684
2018-10-02 00:50:00+00:00,237.3748,11.9,13.13,47.84626,-54.09684
2018-10-02 01:00:00+00:00,240.7731,11.9,13.05,47.84626,-54.09684
2018-10-02 01:10:00+00:00,248.548,11.9,12.97,47.84626,-54.09684
2018-10-02 01:20:00+00:00,254.4281,11.9,13.05,47.84626,-54.09684
2018-10-02 01:30:00+00:00,255.9031,11.92,13.05,47.84626,-54.09684
2018-10-02 01:40:00+00:00,261.4031,11.92,13.05,47.84626,-54.09684
2018-10-02 01:50:00+00:00,266.1464,11.92,13.05,47.84626,-54.09684
2018-10-02 02:00:00+00:00,266.0581,11.91,13.05,47.84626,-54.09684
2018-10-02 02:10:00+00:00,268.2514,11.9,12.97,47.84626,-54.09684
2018-10-02 02:20:00+00:00,276.6597,11.9,13.05,47.84626,-54.09684
2018-10-02 02:30:00+00:00,282.6797,11.9,13.05,47.84626,-54.09684
2018-10-02 02:40:00+00:00,283.2697,11.9,13.05,47.84626,-54.09684
2018-10-02 02:50:00+00:00,286.3663,11.9,13.05,47.84626,-54.09684
2018-10-02 03:00:00+00:00,295.1063,11.9,12.97,47.84626,-54.09684
2018-10-02 03:10:00+00:00,297.1663,11.9,12.97,47.84626,-54.09684
2018-10-02 03:20:00+00:00,298.1063,11.9,12.97,47.84626,-54.09684
2018-10-02 03:30:00+00:00,304.4363,11.9,13.05,47.84626,-54.09684
2018-10-02 03:40:00+00:00,308.0931,11.9,13.05,47.84626,-54.09684
2018-10-02 03:50:00+00:00,305.2247,11.9,13.05,47.84626,-54.09684
2018-10-02 04:00:00+00:00,307.2196,11.9,12.97,47.84626,-54.09684
2018-10-02 04:10:00+00:00,310.7996,11.89,12.89,47.84626,-54.09684
2018-10-02 04:20:00+00:00,307.418,11.8,12.97,47.84626,-54.09684
2018-10-02 04:30:00+00:00,305.6414,11.8,12.97,47.84626,-54.09684
2018-10-02 04:40:00+00:00,314.7313,11.86,13.05,47.84626,-54.09684
2018-10-02 04:50:00+00:00,317.6297,11.88,13.05,47.84626,-54.09684
2018-10-02 05:00:00+00:00,309.608,11.89,12.97,47.84626,-54.09684
2018-10-02 05:10:00+00:00,309.0696,11.86,12.89,47.84626,-54.09684
2018-10-02 05:20:00+00:00,313.4813,11.87,12.97,47.84626,-54.09684
2018-10-02 05:30:00+00:00,308.7231,11.88,12.97,47.84626,-54.09684
2018-10-02 05:40:00+00:00,298.243,11.84,12.97,47.84626,-54.09684
2018-10-02 05:50:00+00:00,301.6247,11.84,12.97,47.84626,-54.09684
2018-10-02 06:00:00+00:00,302.7081,11.86,12.97,47.84626,-54.09684
2018-10-02 06:10:00+00:00,291.948,11.87,12.89,47.84626,-54.09684
2018-10-02 06:20:00+00:00,285.1213,11.87,12.97,47.84626,-54.09684
2018-10-02 06:30:00+00:00,288.1447,11.85,12.97,47.84626,-54.09684
2018-10-02 06:40:00+00:00,280.5814,11.88,12.97,47.84626,-54.09684
2018-10-02 06:50:00+00:00,267.958,11.86,12.97,47.84626,-54.09684
2018-10-02 07:00:00+00:00,265.6547,11.85,12.97,47.84626,-54.09684
2018-10-02 07:10:00+00:00,266.1898,11.87,12.89,47.84626,-54.09684
2018-10-02 07:20:00+00:00,253.2748,11.87,12.97,47.84626,-54.09684
2018-10-02 07:30:00+00:00,239.8414,11.86,12.97,47.84626,-54.09684
2018-10-02 07:40:00+00:00,238.3765,11.86,12.97,47.84626,-54.09684
2018-10-02 07:50:00+00:00,235.7331,11.88,12.97,47.84626,-54.09684
2018-10-02 08:00:00+00:00,225.6281,11.88,12.97,47.84626,-54.09684
2018-10-02 08:10:00+00:00,218.5115,11.85,12.81,47.84626,-54.09684
2018-10-02 08:20:00+00:00,217.9231,11.83,12.97,47.84626,-54.09684
2018-10-02 08:30:00+00:00,213.6248,11.8,12.97,47.84626,-54.09684
2018-10-02 08:40:00+00:00,205.1564,11.8,12.97,47.84626,-54.09684
2018-10-02 08:50:00+00:00,200.4965,11.8,12.97,47.84626,-54.09684
2018-10-02 09:00:00+00:00,198.2932,11.8,12.89,47.84626,-54.09684
2018-10-02 09:10:00+00:00,194.7731,11.8,12.81,47.84626,-54.09684
2018-10-02 09:20:00+00:00,192.5314,11.8,12.97,47.84626,-54.09684
2018-10-02 09:30:00+00:00,196.6131,11.8,12.97,47.84626,-54.09684
2018-10-02 09:40:00+00:00,200.4331,11.83,12.97,47.84626,-54.09684
2018-10-02 09:50:00+00:00,199.9649,11.86,13.05,47.84626,-54.09684
2018-10-02 10:00:00+00:00,203.3199,11.87,13.29,47.84626,-54.09684
2018-10-02 10:10:00+00:00,208.8865,11.79,13.6,47.84626,-54.09684
2018-10-02 10:20:00+00:00,211.9448,11.77,14.08,47.84626,-54.09684
2018-10-02 10:30:00+00:00,211.8731,11.79,14.64,47.84626,-54.09684
2018-10-02 10:40:00+00:00,212.7515,11.76,16.07,47.84626,-54.09684
2018-10-02 10:50:00+00:00,215.9847,11.79,16.31,47.84626,-54.09684
2018-10-02 11:00:00+00:00,219.0414,11.8,15.67,47.84626,-54.09684
2018-10-02 11:10:00+00:00,223.9565,11.85,15.04,47.84626,-54.09684
2018-10-02 11:20:00+00:00,229.2014,11.89,15.83,47.84626,-54.09684
2018-10-02 11:30:00+00:00,233.0863,11.9,15.35,47.84626,-54.09684
2018-10-02 11:40:00+00:00,237.4814,11.9,15.11,47.84626,-54.09684
2018-10-02 11:50:00+00:00,239.0631,11.9,15.04,47.84626,-54.09684
2018-10-02 12:00:00+00:00,236.7713,11.9,14.88,47.84626,-54.09684
2018-10-02 12:10:00+00:00,238.7098,11.99,14.8,47.84626,-54.09684
2018-10-02 12:20:00+00:00,244.2298,12.0,14.96,47.84626,-54.09684
2018-10-02 12:30:00+00:00,241.8848,12.0,14.96,47.84626,-54.09684
2018-10-02 12:40:00+00:00,239.5698,12.01,14.96,47.84626,-54.09684
2018-10-02 12:50:00+00:00,247.3881,12.0,14.88,47.84626,-54.09684
2018-10-02 13:00:00+00:00,254.1463,12.0,14.8,47.84626,-54.09684
2018-10-02 13:10:00+00:00,254.5299,12.0,14.8,47.84626,-54.09684
2018-10-02 13:20:00+00:00,257.7764,12.0,14.88,47.84626,-54.09684
2018-10-02 13:30:00+00:00,266.3831,12.0,14.8,47.84626,-54.09684
2018-10-02 13:40:00+00:00,268.213,12.0,14.8,47.84626,-54.09684
2018-10-02 13:50:00+00:00,267.3747,12.02,14.8,47.84626,-54.09684
2018-10-02 14:00:00+00:00,275.688,12.0,14.72,47.84626,-54.09684
2018-10-02 14:10:00+00:00,283.5847,12.04,14.64,47.84626,-54.09684
2018-10-02 14:20:00+00:00,286.543,12.06,14.64,47.84626,-54.09684
2018-10-02 14:30:00+00:00,291.3497,12.06,14.64,47.84626,-54.09684
2018-10-02 14:40:00+00:00,306.4647,12.06,14.56,47.84626,-54.09684
2018-10-02 14:50:00+00:00,314.6514,12.08,14.56,47.84626,-54.09684
2018-10-02 15:00:00+00:00,317.3246,12.08,14.4,47.84626,-54.09684
2018-10-02 15:10:00+00:00,321.7963,12.1,14.32,47.84626,-54.09684
2018-10-02 15:20:00+00:00,329.3011,12.1,14.4,47.84626,-54.09684
2018-10-02 15:30:00+00:00,327.7579,12.1,14.32,47.84626,-54.09684
2018-10-02 15:40:00+00:00,324.8979,12.1,14.32,47.84626,-54.09684
2018-10-02 15:50:00+00:00,332.9147,12.1,14.32,47.84626,-54.09684
2018-10-02 16:00:00+00:00,333.903,12.1,14.24,47.84626,-54.09684
2018-10-02 16:10:00+00:00,329.7996,12.12,14.16,47.84626,-54.09684
2018-10-02 16:20:00+00:00,336.2496,12.12,14.24,47.84626,-54.09684
2018-10-02 16:30:00+00:00,344.8914,12.13,14.24,47.84626,-54.09684
2018-10-02 16:40:00+00:00,341.8513,12.13,14.32,47.84626,-54.09684
2018-10-02 16:50:00+00:00,343.6213,12.1,14.4,47.84626,-54.09684
2018-10-02 17:00:00+00:00,348.5029,12.1,14.4,47.84626,-54.09684
2018-10-02 17:10:00+00:00,346.923,12.13,14.24,47.84626,-54.09684
2018-10-02 17:20:00+00:00,341.7713,12.15,14.32,47.84626,-54.09684
2018-10-02 17:30:00+00:00,349.6346,12.15,14.32,47.84626,-54.09684
2018-10-02 17:40:00+00:00,355.6395,12.16,14.4,47.84626,-54.09684
2018-10-02 17:50:00+00:00,349.4929,12.13,14.56,47.84626,-54.09684
2018-10-02 18:00:00+00:00,344.8462,12.14,14.4,47.84626,-54.09684
2018-10-02 18:10:00+00:00,347.7047,12.1,14.4,47.84626,-54.09684
2018-10-02 18:20:00+00:00,346.1447,12.15,14.48,47.84626,-54.09684
2018-10-02 18:30:00+00:00,334.1296,12.16,14.4,47.84626,-54.09684
2018-10-02 18:40:00+00:00,328.078,12.1,14.4,47.84626,-54.09684
2018-10-02 18:50:00+00:00,332.0679,11.9,14.24,47.84626,-54.09684
2018-10-02 19:00:00+00:00,320.0463,11.65,14.24,47.84626,-54.09684
2018-10-02 19:10:00+00:00,304.1447,11.67,14.16,47.84626,-54.09684
2018-10-02 19:20:00+00:00,300.4515,11.99,14.16,47.84626,-54.09684
2018-10-02 19:30:00+00:00,301.6113,12.0,14.16,47.84626,-54.09684
2018-10-02 19:40:00+00:00,290.0514,12.0,14.16,47.84626,-54.09684
2018-10-02 19:50:00+00:00,284.2413,11.94,14.08,47.84626,-54.09684
2018-10-02 20:00:00+00:00,282.283,12.0,14.0,47.84626,-54.09684
2018-10-02 20:10:00+00:00,277.8013,11.95,13.92,47.84626,-54.09684
2018-10-02 20:20:00+00:00,264.1031,12.0,13.92,47.84626,-54.09684
2018-10-02 20:30:00+00:00,257.8613,12.05,13.84,47.84626,-54.09684
2018-10-02 20:40:00+00:00,255.4831,12.1,13.84,47.84626,-54.09684
2018-10-02 20:50:00+00:00,251.1381,12.16,13.76,47.84626,-54.09684
2018-10-02 21:00:00+00:00,240.8064,12.18,13.68,47.84626,-54.09684
2018-10-02 21:10:00+00:00,234.0131,12.17,13.53,47.84626,-54.09684
2018-10-02 21:20:00+00:00,235.5298,12.17,13.53,47.84626,-54.09684
2018-10-02 21:30:00+00:00,232.6514,12.14,13.44,47.84626,-54.09684
2018-10-02 21:40:00+00:00,226.9848,12.0,13.44,47.84626,-54.09684
2018-10-02 21:50:00+00:00,226.1064,12.07,13.37,47.84626,-54.09684
2018-10-02 22:00:00+00:00,229.4814,12.1,13.29,47.84626,-54.09684
2018-10-02 22:10:00+00:00,226.3015,12.1,13.21,47.84626,-54.09684
2018-10-02 22:20:00+00:00,223.8648,12.1,13.21,47.84626,-54.09684
2018-10-02 22:30:00+00:00,226.9514,12.1,13.21,47.84626,-54.09684
2018-10-02 22:40:00+00:00,229.308,12.1,13.21,47.84626,-54.09684
2018-10-02 22:50:00+00:00,227.0464,12.1,13.21,47.84626,-54.09684
2018-10-02 23:00:00+00:00,226.9499,12.1,13.13,47.84626,-54.09684
2018-10-02 23:10:00+00:00,227.9048,12.16,12.97,47.84626,-54.09684
2018-10-02 23:20:00+00:00,229.0331,12.18,13.05,47.84626,-54.09684
2018-10-02 23:30:00+00:00,228.5232,12.19,13.05,47.84626,-54.09684
2018-10-02 23:40:00+00:00,229.5898,12.19,13.13,47.84626,-54.09684
2018-10-02 23:50:00+00:00,231.2064,12.19,13.13,47.84626,-54.09684
